566  
AXUS43 KLBF 161210  
MISLBF  
 
WESTERN AND NORTH CENTRAL NEBRASKA HOURLY WEATHER ROUNDUP  
NATIONAL WEATHER SERVICE NORTH PLATTE NE  
700 AM CDT WED OCT 16 2019  
 
NOTE: "FAIR" INDICATES FEW OR NO CLOUDS BELOW 12,000 FEET WITH NO  
SIGNIFICANT WEATHER AND/OR OBSTRUCTIONS TO VISIBILITY.  
 
NOTE: STATIONS NOT REPORTING SKY/WEATHER AND PRESSURE ARE  
PROVIDED BY RAWS AND APRS NETWORKS AND ARE NOT UNDER NATIONAL  
WEATHER SERVICE QUALITY CONTROL.  
   
..OBSERVATIONS IN AND NEAR THE EASTERN PANHANDLE OF NEBRASKA
 
 
 
CITY SKY/WX TMP DP RH WIND PRES REMARKS  
PINE RIDGE CLEAR 32 25 75 S5 30.09F  
GORDON FAIR 30 26 84 CALM 30.11F  
CHADRON PTCLDY 25 23 92 W7 30.08F WCI 17  
ALLIANCE CLEAR 28 23 81 S9 30.10F WCI 19  
SIDNEY CLEAR 33 23 66 SW7 30.13F  
CRESCENT LAKE N/A 30 26 84 S6 N/A  

 
   
..OBSERVATIONS IN NORTHERN NEBRASKA AND FAR SOUTHERN SOUTH DAKOTA
 
 
 
CITY SKY/WX TMP DP RH WIND PRES REMARKS  
WINNER FAIR 32 27 81 S5 30.17F  
VALENTINE CLEAR 24 20 84 SW6 30.16F WCI 17  
AINSWORTH CLEAR 27 27 100 S6 30.17F WCI 20  
O'NEILL FAIR 31 30 96 CALM 30.21F  
THEDFORD CLEAR 24 22 94 W3 30.19F  
BROKEN BOW FAIR 23 21 92 CALM 30.21F  
ORD FAIR 26 24 92 CALM 30.21F  
ALBION CLEAR 31 30 95 NW3 30.22F  
EWING N/A 37 35 91 CALM N/A  
CHAMBERS N/A 28 26 92 CALM N/A  
BUTTE N/A 34 30 86 CALM N/A  
SPRINGVIEW N/A 26 25 94 CALM N/A  
VALENTINE NWR N/A 29 29 98 S5 N/A  
HALSEY N/A 25 23 92 CALM N/A  

 
   
..OBSERVATIONS IN SOUTHWEST NEBRASKA AND FAR NORTHEAST COLORADO
 
 
 
CITY SKY/WX TMP DP RH WIND PRES REMARKS  
WRAY FAIR 32 23 69 CALM 30.17  
HOLYOKE FAIR 30 23 74 S5 30.17  
IMPERIAL CLEAR 27 20 75 S3 30.20F  
OGALLALA CLEAR 28 22 80 CALM 30.18F  
NORTH PLATTE CLEAR 24 21 88 CALM 30.21F  
MCCOOK CLEAR 27 22 81 CALM 30.24S  
LEXINGTON FAIR 25 23 93 NW5 30.24S WCI 19  
CALLAWAY N/A 25 23 91 CALM N/A  
STAPLETON N/A 24 21 89 CALM N/A  

 
   
..OBSERVATIONS IN CENTRAL LINCOLN COUNTY AREA
 
 
 
CITY SKY/WX TMP DP RH WIND PRES REMARKS  
N.P. AIRPORT CLEAR 24 21 88 CALM 30.21F  
N.P. HILLCREST N/A 28 25 87 CALM N/A  
N.P. DOWNTOWN N/A 27 24 88 CALM N/A  
N.P. SOUTHEAST N/A 26 23 87 CALM N/A  

 
   
..OBSERVATIONS ACROSS THE ROCKIES AND WESTERN HIGH PLAINS
 
 
 
CITY SKY/WX TMP DP RH WIND PRES REMARKS  
SCOTTSBLUFF CLEAR 30 25 81 SE5 30.11F  
KIMBALL CLEAR 31 23 74 W5 30.13F  
CHEYENNE PTCLDY 36 23 59 NW3 30.15F  
DENVER MOCLDY 41 25 53 SW6 30.15F  
STEAMBOAT FAIR 29 16 59 CALM 30.32  
COPPER MTN CLEAR 36 9 32 W12G20 30.52  
LEADVILLE CLEAR 27 9 46 NE9 30.43S WCI 18  
ASPEN PTCLDY 31 14 49 MISG 30.36F  
GUNNISON CLEAR 20 9 62 CALM 30.45R  
TELLURIDE CLEAR 37 10 32 SE8 30.44  
LARAMIE PTCLDY 46 12 25 SW17 30.22S  
CASPER MOCLDY 48 24 39 SW16 30.10F  
SHERIDAN MOCLDY 33 28 81 CALM 29.99S  
JACKSON HOLE CLEAR 24 20 84 NE8 30.26S WCI 15  
YELLOWSTONE N/A 25 23 92 W3 30.28F  

 
   
..OBSERVATIONS ACROSS THE NORTHERN PLAINS
 
 
 
CITY SKY/WX TMP DP RH WIND PRES REMARKS  
RAPID CITY PTCLDY 29 25 85 SE5 30.05F  
PIERRE MOCLDY 28 27 96 CALM 30.16F  
SIOUX FALLS CLOUDY 39 32 76 NW7 30.18S  
ABERDEEN CLOUDY 38 31 76 N3 30.19S  
WILLISTON CLOUDY 34 30 85 S12 29.97F  
DICKINSON PTCLDY 32 29 88 S13 30.01F  
BISMARCK MOCLDY 29 27 92 CALM 30.13F  
FARGO CLOUDY 37 35 92 NW7 30.15S  

 
   
..OBSERVATIONS ACROSS THE CENTRAL AND SOUTHERN PLAINS
 
 
 
CITY SKY/WX TMP DP RH WIND PRES REMARKS  
GRAND ISLAND CLEAR 29 26 89 N6 30.23F  
LINCOLN CLOUDY 41 33 73 NW8 30.24F  
OMAHA CLOUDY 43 36 76 NW12 30.21R  
DES MOINES CLOUDY 43 35 73 NW10 30.13F  
KANSAS CITY CLOUDY 44 37 76 N8 30.18R  
WICHITA CLEAR 41 32 70 N10 30.22F  
DODGE CITY CLEAR 34 26 72 NW5 30.25F  
OKLAHOMA CITY CLEAR 45 34 65 N12 30.21S  
DALLAS MOCLDY 58 36 43 N8G18 30.14R  
AMARILLO CLEAR 40 31 70 W5 30.27F  

 
 
 
CLICK HERE TO GO TO PREVIOUS BULLETINS.

The Nexlab NE Page Main Text Page